Location: Central Falls
(41.8900°N, 71.3929°W)
Time: 00:42:41
(UTC+00:00)

Vanguard 3 - Pass Details

Date: 11 December 2023
Orbit: 508 x 3239 km, 33.4° (Epoch: 03 March)

Event Time Altitude Azimuth Distance (km) Brightness Sun altitude
Rises 01:19:02 0° 244° (WSW) 7,015 12.5 -44.6°
Reaches altitude 10° 01:24:17 10° 240° (WSW) 5,761 11.8 -45.6°
Enters shadow 01:36:35 45° 207° (SSW) 2,912 9.8 -47.8°
Maximum altitude 01:39:53 52° 171° (S) 2,480 - -48.4°
Drops below altitude 10° 01:49:11 10° 99° (E) 3,559 - -50.1°
Sets 01:51:38 0° 94° (E) 4,242 - -50.5°
